Orbital Elements at Epoch 2459200.5 (2020-Dec-17.0) TDB
Reference: JPL 20 (heliocentric ecliptic J2000)
Element | Value | Uncertainty (1-sigma) | Units |
e | .2062161668428608 | 6.3727e-08 | |
a | 2.593533558973003 | 1.492e-08 | au |
q | 2.058705009863268 | 1.7226e-07 | au |
i | 4.997511068787368 | 4.7987e-06 | deg |
node | 59.61269214738562 | 5.6537e-05 | deg |
peri | 106.0563790437154 | 5.7921e-05 | deg |
M | 294.4537163279306 | 1.6223e-05 | deg |
tp | 2459478.267741203055 (2021-Sep-20.76774120) | 7.0467e-05 | TDB |
period | 1525.584384515002 4.18 | 1.3164e-05 3.604e-08 | d yr |
n | .2359751473953683 | 2.0362e-09 | deg/d |
Q | 3.128362108082739 | 1.7997e-08 | au |
|
| | Orbit Determination Parameters
Additional Information
|